Home   Weather   Serekunda   Past weeks

Flag for Gambia Past Weather in Serekunda, Gambia — Yesterday and Last 2 Weeks

Now
86 °F

Partly sunny.


Feels Like: 97 °F
Forecast: N/A
Wind: 12 mph from Northwest

Location: Banjul / Yundum

Current Time: Jul 26, 2017 at 6:49:30 pm

Latest Report: Jul 26, 2017 at 6:00 pm


Visibility: N/A

Pressure: 29.83 "Hg

Humidity: 75%

Dew Point: 77 °F

Location of SerekundaLocation

Past Weather in Serekunda — Graph

°F

Serekunda Temperature Yesterday

Maximum temperature yesterday: 86 °F (at 5:00 pm)
Minimum temperature yesterday: 73 °F (at 12:00 am)
Average temperature yesterday: 80 °F

High & Low Weather Summary for the Past Weeks

 TemperatureHumidityPressure
High88 °F (Jul 12, 4:00 pm)100% (Jul 12, 11:00 pm)32.52 "Hg (Jul 12, 11:00 pm)
Low70 °F (Jul 21, 11:00 am)55% (Jul 26, 2:00 pm)29.83 "Hg (Jul 15, 6:00 pm)
Average80 °F85%29.94 "Hg
* Reported Jul 11 5:00 pm — Jul 26 5:00 pm, Serekunda. Weather by CustomWeather, © 2017

Note: Actual official high and low records may vary slightly from our data, if they occured in-between our weather recording intervals... More about our weather records

Advertising

Serekunda Weather History for the Previous 24 Hours

Scroll right to see more
 ConditionsComfort  
Time TempWeatherWind HumidityBarometerVisibility
5:00 pm
Wed, Jul 26
86 °FPartly sunny.12 mph70%29.83 "HgN/A
4:00 pm88 °FPartly sunny.12 mph75%29.86 "HgN/A
3:00 pm88 °FPartly sunny.12 mph75%29.86 "HgN/A
2:00 pm88 °FPartly sunny.8 mph55%29.89 "HgN/A
1:00 pm86 °FPartly sunny.3 mph70%29.92 "HgN/A
12:00 pm86 °FPartly sunny.6 mph75%29.92 "HgN/A
11:00 am84 °FPartly sunny.No wind74%29.95 "HgN/A
10:00 am84 °FPartly sunny.No wind74%29.92 "HgN/A
9:00 am84 °FBroken clouds.No wind79%29.92 "HgN/A
8:00 am79 °FWarm.6 mph89%29.89 "HgN/A
7:00 am79 °FScattered clouds.No wind89%29.89 "HgN/A
6:00 am77 °FPassing clouds.No wind94%29.89 "HgN/A
5:00 am77 °FWarm.N/A94%29.89 "HgN/A
4:00 am77 °FPassing clouds.No wind89%29.89 "HgN/A
2:00 am77 °FWarm.No wind100%29.92 "HgN/A
1:00 am79 °FPassing clouds.No wind94%29.95 "HgN/A
12:00 am79 °FPassing clouds.No wind89%29.95 "HgN/A
11:00 pm
Tue, Jul 25
81 °FPassing clouds.No wind84%29.95 "HgN/A
10:00 pm81 °FPassing clouds.6 mph84%29.95 "HgN/A
9:00 pm81 °FPassing clouds.No wind89%29.95 "HgN/A
8:00 pm81 °FPassing clouds.No wind89%29.92 "HgN/A
7:00 pm82 °FPartly sunny.10 mph79%29.92 "HgN/A
6:00 pm86 °FPartly sunny.7 mph75%29.89 "HgN/A
Weather by CustomWeather, © 2017

See weather overviewHow to use our weather pages